AQI (25)

Current Conditions for Foresthill, CA. Sunny, Dry   
Visibility: 10 miles
Space WX Alerts: ALERT:  Geomagnetic K-index of 5 ( Latest Alert ) - Issue Time: 2018 Jun 18 0256 UTC

  Summary / Temperature 

Current Temperature
56.8°F
13.8°C
(24/hr Ago)
50.1°F
(Apparent temp)
56.9°F
Cool
Wind Chill Graphs
56.8°F 

59.1°F/ 15.1°C
 --- Virtual Temp: 59.4°F ---

 Temp Rate:

 24/hr Difference:

 Avg Running Temp:

 Todays High:

 Todays Low:

 Y-days High:

 Y-days Low:

 Todays WChill:

 Y-days WChill:

 Evapotranspiration:

+1.2°F/hr 

+6.7°F

54.6°F

56.8°F 8:20am

53.0°F 5:47am

66.7°F 6:05pm

47.8°F 5:45am

50.5°F 6:25am

45.2°F 6:33am

0.010 in

115' Above Ground

 Temperature:

 6'AGL VRS 115'AGL:

 Avg Running Temp:

 Humidity:

 Todays High:

 Todays Low:

 Y-days High:

 Y-days Low:

63.0°F 

+6.2°F

63.0°F

0% 

63.0°F 12:00am

63.0°F 12:00am

68.0°F 5:33pm

61.0°F 12:18pm

Temp & Humidity Graphs

  Wind 

Wind Speed

 Calm

Gusting to

 5.0 mph

Wind from E

98°  E

Calm

 Avg speed:

 Wind Run:

 Peak Gust:

Calm 

11.0 miles

  9.0 mph 4:20am

  Almanac  

Moon age: 5 days,11 hours,0 minutes,30%

Waxing Crescent
30%
Illuminated
5 days in cycle

 Moonrise:

 Moonset:

 Sunrise:

 Sunset:

 Solar Noon:

11:10am

12:08am

5:37am

8:31pm

1:05pm

0min 14s more daylight tomorrow 

  Solar Radiation 

(Current Solar)
  438 W/m2 (92%)
(Todays High)
 436 W/m2@8:20am
Feels like: 65.1°F in the sun

Rain

 Rain Today:

 Rain Rate (/hr):

 Rain last hour:

 Rain Yesterday:

 This Month:

 Season Total:

23 Days Since Last Rain Day

0.00 in

0.000 in

0.00 in

0.00 in

0.00 in

42.44 in

Updated Time

Updated: 6/18/18  8:21am

(Updated  sec ago)

Humidity & Barometer

 Humidity:

 Wetbulb:

 Dew Point:

 Barometer:

78% 

53.1°F 

50.0°F 

30.031 inHg 

 Baro Trend:  Steady 
Northern Calif
Preparedness
Fire 
Level 

    UV Index  

(Current UV)
1.6  Low
(Todays High) @ 8:20am
1.6   Low

National Weather Service Forecast

Today

Today: Sunny
Sunny
Tonight

Tonight: Mostly Clear
Mostly Clear
Tuesday

Tuesday: Sunny
Sunny
Tuesday
Night
Tuesday Night: Clear
Clear
Wednesday

Wednesday: Sunny
Sunny
Wednesday
Night
Wednesday Night: Clear
Clear
Hi 79 °F Lo 60 °F Hi 87 °F Lo 64 °F Hi 89 °F Lo 63 °F

Foresthill Probe 2 Stats  
Foresthill Probe 2: is located on Thomas Street
at 3000 feet. The main Foresthill Weather site
is located on Melody ln at the 2860 foot elevation

Calm
58.8°F
14.9°C
Temp Rate:
+2.3°F
Calm
Gusting to
4.0 mph
(Humidity)
77%
Wind from NW
308°  NW
Updated: 18/06/18 - 08:16:57
 Todays High: 58.8°F 08:16
 Todays Low: 51.4°F 05:39
 Rain Today: 0.00 in
 Season Total: 44.79 in

Foresthill Wx: Monthly,Yearly, Highs and Lows 

Foresthill  
This Weather Data is coming from the main Foresthill
Weather site located on Melody ln at the 2860 foot
elevation
Not Foresthill Probe 2
Weather Data
Month
  High
Month
  Low
Year
High
Year
Low
Temp 87.4°F
6/13/18
46.3°F
6/1/18
87.4°F
6/13/18
21.9°F
2/23/18
Humidity 86%
6/17/18
22%
6/10/18
100%
1/8/18
15%
2/10/18
Heat Index 84.7°F
6/13/18
48.2°F
6/1/18
84.7°F
6/13/18
27.1°F
2/20/18
Wind Chill 87.4°F
6/13/18
44.3°F
6/10/18
87.4°F
6/13/18
9.2°F
2/23/18
Wind Gust 22 mph
6/15/18
0 mph
6/1/18
43 mph
3/1/18
0 mph
1/1/18
Barometer 30.11 in
6/1/18
29.60 in
6/16/18
30.55 in
1/27/18
29.60 in
6/16/18
ET 0.24 in
6/13/18
0.00 in
6/1/18
0.24 in
6/13/18
0.00 in
1/1/18
Dew Point 56.6°F
6/13/18
27.9°F
6/10/18
57.4°F
5/27/18
7.6°F
2/11/18
Pacific Satellite US Radar Satellite Imagery Sacramento,CA.  (click to enlarge)
NWS Weather Forecast - Summary
Updated: Monday, June 18, 2018 - 2:12am PDT
Current Interstate Highway Conditions for I-80 & US-50

[I 80: IN THE SAN FRANCISCO BAY AREA - SOLANO CO]
  A high wind advisory is in effect at the san francisco-oakland bay bridge /in san francisco/ (san francisco,alameda co) - travel is not recommended for campers, trailers or permit loads

[I 80: IN THE NORTHERN CALIFORNIA AREA & SIERRA NEVADA]
no traffic restrictions are reported for this area.

[US 50: IN THE SACRAMENTO VALLEY & THE LAKE TAHOE BASIN]
no traffic restrictions are reported for this area.
NWS Weather Forecast: Today and Tonight (Updated: Mon, 18-Jun-2018 1:43am PDT)
Today

Today: Sunny
Sunny

Hi 79 °F
NWS forecast: Sunny, with a high near 79. West northwest wind 3 to 9 mph.
Tonight

Tonight: Mostly Clear
Mostly Clear

Lo 60 °F
NWS forecast: Mostly clear, with a low around 60. Northeast wind 3 to 7 mph.
YR.NO 10 Day Weather forecast
Last update: 06/18/2018 @ 00:39
Next update: 06/18/2018 @ 13:00
Provided by: 22
      Temperature Precipitation Pressure Wind  
Today
06/18/2018
07:00 12:00 54°F   30.00 inHg Light breeze from east-northeast 4 mph
  12:00 18:00 75°F   29.97 inHg Gentle breeze from west 9 mph
  18:00 00:00 77°F   29.94 inHg Light breeze from west 6 mph
    (Click to enlarge)
meteogram

    Forecast for next 9 days

      Temperature Precip Pressure Wind  
Tuesday
06/19/2018
00:00 06:00 57°F   29.99 inHg Light air from east-northeast 3 mph
  06:00 12:00 55°F   29.94 inHg Gentle breeze from east-northeast 8 mph
  12:00 18:00 82°F   29.96 inHg Light breeze from west-southwest 6 mph
  18:00 00:00 82°F   29.91 inHg Light breeze from west-southwest 5 mph
      Temperature Precip Pressure Wind  
Wednesday
06/20/2018
00:00 06:00 63°F   29.94 inHg Light air from east-northeast 3 mph
  06:00 12:00 55°F   29.90 inHg Light breeze from east-northeast 6 mph
  12:00 18:00 86°F   29.91 inHg Light breeze from southwest 6 mph
  17:00 23:00 86°F   29.87 inHg Light breeze from southwest 7 mph
  23:00 05:00 64°F   29.92 inHg Light air from east 3 mph
      Temperature Precip Pressure Wind  
Thursday
06/21/2018
05:00 11:00 57°F   29.91 inHg Light breeze from east-northeast 5 mph
  11:00 17:00 86°F   29.93 inHg Light breeze from southwest 6 mph
  17:00 23:00 88°F   29.89 inHg Light breeze from west-southwest 6 mph
  23:00 05:00 61°F   29.92 inHg Light air from east-northeast 3 mph
      Temperature Precip Pressure Wind  
Friday
06/22/2018
05:00 11:00 54°F   29.90 inHg Light breeze from east-northeast 6 mph
  11:00 17:00 91°F   29.86 inHg Light breeze from west 6 mph
  17:00 23:00 93°F   29.78 inHg Light breeze from west 7 mph
  23:00 05:00 72°F   29.81 inHg Light breeze from east-northeast 5 mph
      Temperature Precip Pressure Wind  
Saturday
06/23/2018
05:00 11:00 61°F   29.72 inHg Gentle breeze from east-northeast 8 mph
  11:00 17:00 93°F   29.70 inHg Gentle breeze from west-southwest 8 mph
  17:00 23:00 99°F   29.63 inHg Light breeze from west 6 mph
  23:00 05:00 77°F   29.67 inHg Light air from east 3 mph
      Temperature Precip Pressure Wind  
Sunday
06/24/2018
05:00 11:00 75°F   29.65 inHg Light breeze from east-northeast 6 mph
  11:00 17:00 99°F   29.70 inHg Light breeze from southwest 7 mph
  17:00 23:00 95°F   29.73 inHg Gentle breeze from southwest 8 mph
  23:00 05:00 73°F   29.83 inHg Light breeze from southeast 6 mph
      Temperature Precip Pressure Wind  
Monday
06/25/2018
05:00 11:00 61°F   29.87 inHg Light breeze from east-southeast 4 mph
  11:00 17:00 82°F   29.91 inHg Light breeze from southwest 6 mph
  17:00 23:00 86°F   29.87 inHg Light breeze from southwest 7 mph
  23:00 05:00 66°F   29.91 inHg Light air from east-southeast 2 mph
      Temperature Precip Pressure Wind  
Tuesday
06/26/2018
05:00 11:00 57°F   29.88 inHg Light air from east 3 mph
  11:00 17:00 82°F   29.93 inHg Light breeze from southwest 6 mph
  17:00 23:00 88°F   29.88 inHg Light breeze from southwest 7 mph
  23:00 05:00 68°F   29.91 inHg Light breeze from east 4 mph
      Temperature Precip Pressure Wind  
Wednesday
06/27/2018
05:00 11:00 59°F   29.90 inHg Light breeze from east 6 mph
  11:00 17:00 88°F   29.93 inHg Gentle breeze from south-southwest 8 mph
How Close Are We To this Month's Temperature Record ?
Updated Monday, Jun 18, 2018- 8:15:00 AM

Current Temperature: 56.8°F

June's High: Temperature Record 95.1°F - Set on Sat, Jun 8, 2013 - 3:58:00 PM
We are currently 38.3°F Less than this Month's record High

June's Low: Temperature Record 40.8°F - Set on Tue, Jun 5, 2012 - 5:41:00 AM
We are currently 16°F More than this Month's record Low

Weather History For Monday, June 18, 2018


On this Day - In Weather History ...
Data courtesy of weatherforyou.com
powered by Cumulus v1.9.3 (1059)
Ambient Weather VWS v14.00
Top Contact Website Map Copyright © 2007 - 2018 Foresthillweather.com Never base important decisions on this or any weather information obtained from the Internet